| time (UTC) | temp F | wind direction | speed MPH | gust MPH | rain 1hr in | rain 24hr in | rain mn in | humidity % | barometer mb |
| 20260903113203 | 91 | 137 | 2.0 | 4.0 | 0.00 | 0.00 | 0.00 | 44 | 1012.4 |
| 20260903112803 | 92 | 173 | 1.0 | 4.0 | 0.00 | 0.00 | 0.00 | 45 | 1012.6 |
| 20260903112614 | 91 | 182 | 1.0 | 4.0 | 0.00 | 0.00 | 0.00 | 43 | 1012.5 |
| 20260903112213 | 91 | 96 | 2.0 | 4.0 | 0.00 | 0.00 | 0.00 | 43 | 1012.5 |
| 20260903111603 | 90 | 82 | 2.0 | 6.0 | 0.00 | 0.00 | 0.00 | 44 | 1012.5 |
| 20260903111203 | 91 | 71 | 2.0 | 6.0 | 0.00 | 0.00 | 0.00 | 44 | 1012.6 |
| 20260903110804 | 93 | 34 | 2.0 | 4.0 | 0.00 | 0.00 | 0.00 | 48 | 1012.5 |
| 20260903110404 | 92 | 333 | 1.0 | 4.0 | 0.00 | 0.00 | 0.00 | 42 | 1012.6 |
| 20260903110004 | 92 | 136 | 2.0 | 4.0 | 0.00 | 0.00 | 0.00 | 43 | 1012.6 |
| 20260903105814 | 91 | 139 | 1.0 | 4.0 | 0.00 | 0.00 | 0.00 | 45 | 1012.5 |
| 20260903105203 | 90 | 83 | 2.0 | 7.0 | 0.00 | 0.00 | 0.00 | 46 | 1012.4 |
| 20260903104806 | 92 | 13 | 3.0 | 7.0 | 0.00 | 0.00 | 0.00 | 45 | 1012.4 |
| 20260903104403 | 91 | 360 | 1.0 | 4.0 | 0.00 | 0.00 | 0.00 | 43 | 1012.6 |
| 20260903104004 | 90 | 61 | 1.0 | 6.0 | 0.00 | 0.00 | 0.00 | 44 | 1012.7 |
| 20260903103603 | 89 | 86 | 2.0 | 7.0 | 0.00 | 0.00 | 0.00 | 47 | 1012.5 |
| 20260903103203 | 89 | 92 | 2.0 | 7.0 | 0.00 | 0.00 | 0.00 | 48 | 1012.9 |
| 20260903102803 | 91 | 90 | 2.0 | 6.0 | 0.00 | 0.00 | 0.00 | 48 | 1012.7 |
| 20260903102403 | 92 | 104 | 2.0 | 2.0 | 0.00 | 0.00 | 0.00 | 44 | 1012.8 |
| 20260903102003 | 93 | 79 | 2.0 | 4.0 | 0.00 | 0.00 | 0.00 | 43 | 1012.7 |
| 20260903101603 | 92 | 79 | 1.0 | 4.0 | 0.00 | 0.00 | 0.00 | 48 | 1012.8 |
| 20260903101203 | 91 | 83 | 1.0 | 4.0 | 0.00 | 0.00 | 0.00 | 47 | 1013.3 |
| 20260903100803 | 92 | 44 | 1.0 | 6.0 | 0.00 | 0.00 | 0.00 | 45 | 1012.9 |
| 20260903100617 | 91 | 54 | 0.0 | 6.0 | 0.00 | 0.00 | 0.00 | 48 | 1013.3 |
| 20260903095814 | 89 | 54 | 2.0 | 6.0 | 0.00 | 0.00 | 0.00 | 47 | 1014.0 |
| 20260903095204 | 89 | 76 | 2.0 | 4.0 | 0.00 | 0.00 | 0.00 | 48 | 1013.9 |
| 20260903094804 | 89 | 68 | 2.0 | 4.0 | 0.00 | 0.00 | 0.00 | 50 | 1013.9 |
| 20260903094403 | 89 | 54 | 2.0 | 4.0 | 0.00 | 0.00 | 0.00 | 49 | 1013.8 |
| 20260903094003 | 89 | 61 | 0.0 | 6.0 | 0.00 | 0.00 | 0.00 | 51 | 1014.1 |
| 20260903093603 | 88 | 69 | 2.0 | 6.0 | 0.00 | 0.00 | 0.00 | 49 | 1014.0 |
| 20260903093203 | 89 | 48 | 2.0 | 4.0 | 0.00 | 0.00 | 0.00 | 49 | 1014.0 |
| 20260903092803 | 88 | 38 | 0.0 | 4.0 | 0.00 | 0.00 | 0.00 | 51 | 1014.1 |
| 20260903092403 | 89 | 26 | 2.0 | 6.0 | 0.00 | 0.00 | 0.00 | 50 | 1014.0 |
| 20260903092003 | 87 | 42 | 0.0 | 6.0 | 0.00 | 0.00 | 0.00 | 51 | 1014.2 |
| 20260903091603 | 88 | 57 | 3.0 | 6.0 | 0.00 | 0.00 | 0.00 | 48 | 1014.3 |
| 20260903091203 | 89 | 54 | 1.0 | 4.0 | 0.00 | 0.00 | 0.00 | 51 | 1014.2 |
| 20260903090803 | 88 | 19 | 1.0 | 4.0 | 0.00 | 0.00 | 0.00 | 51 | 1014.0 |
| 20260903090403 | 88 | 350 | 1.0 | 4.0 | 0.00 | 0.00 | 0.00 | 50 | 1014.1 |
| 20260903090003 | 87 | 356 | 2.0 | 4.0 | 0.00 | 0.00 | 0.00 | 50 | 1014.1 |
| 20260903085603 | 87 | 7 | 2.0 | 4.0 | 0.00 | 0.00 | 0.00 | 49 | 1014.1 |
| 20260903085203 | 87 | 17 | 2.0 | 7.0 | 0.00 | 0.00 | 0.00 | 52 | 1014.1 |
| 20260903084803 | 85 | 14 | 3.0 | 7.0 | 0.00 | 0.00 | 0.00 | 53 | 1014.0 |
| 20260903084613 | 85 | 13 | 2.0 | 7.0 | 0.00 | 0.00 | 0.00 | 53 | 1013.9 |
| 20260903084004 | 85 | 6 | 4.0 | 4.0 | 0.00 | 0.00 | 0.00 | 52 | 1014.2 |
| 20260903083603 | 85 | 17 | 3.0 | 4.0 | 0.00 | 0.00 | 0.00 | 53 | 1014.1 |
| 20260903083204 | 84 | 33 | 1.0 | 4.0 | 0.00 | 0.00 | 0.00 | 54 | 1013.8 |
| 20260903082803 | 85 | 36 | 2.0 | 6.0 | 0.00 | 0.00 | 0.00 | 54 | 1014.1 |
| 20260903082403 | 85 | 32 | 3.0 | 6.0 | 0.00 | 0.00 | 0.00 | 53 | 1013.9 |
| 20260903082003 | 85 | 17 | 1.0 | 6.0 | 0.00 | 0.00 | 0.00 | 55 | 1013.9 |
| 20260903081813 | 85 | 13 | 3.0 | 6.0 | 0.00 | 0.00 | 0.00 | 54 | 1013.8 |
| 20260903081203 | 85 | 342 | 2.0 | 4.0 | 0.00 | 0.00 | 0.00 | 53 | 1014.0 |
| 20260903080803 | 84 | 351 | 2.0 | 6.0 | 0.00 | 0.00 | 0.00 | 53 | 1014.0 |
| 20260903080403 | 84 | 332 | 2.0 | 6.0 | 0.00 | 0.00 | 0.00 | 53 | 1014.1 |
| 20260903080003 | 83 | 316 | 2.0 | 6.0 | 0.00 | 0.00 | 0.00 | 54 | 1013.9 |
| 20260903075815 | 84 | 309 | 3.0 | 4.0 | 0.00 | 0.00 | 0.00 | 53 | 1014.0 |
| 20260903075203 | 80 | 22 | 0.0 | 2.0 | 0.00 | 0.00 | 0.00 | 64 | 1014.0 |
| 20260903074803 | 80 | 22 | 0.0 | 2.0 | 0.00 | 0.00 | 0.00 | 64 | 1014.1 |
| 20260903074403 | 80 | 22 | 0.0 | 2.0 | 0.00 | 0.00 | 0.00 | 64 | 1014.1 |
| 20260903074003 | 80 | 22 | 0.0 | 2.0 | 0.00 | 0.00 | 0.00 | 64 | 1014.0 |
| 20260903073603 | 80 | 22 | 0.0 | 2.0 | 0.00 | 0.00 | 0.00 | 64 | 1013.8 |
| 20260903073203 | 80 | 22 | 0.0 | 2.0 | 0.00 | 0.00 | 0.00 | 64 | 1013.9 |
| 20260903072803 | 80 | 22 | 0.0 | 2.0 | 0.00 | 0.00 | 0.00 | 64 | 1013.8 |
| 20260903072615 | 80 | 22 | 0.0 | 2.0 | 0.00 | 0.00 | 0.00 | 64 | 1013.8 |
| 20260903072003 | 80 | 22 | 0.0 | 2.0 | 0.00 | 0.00 | 0.00 | 64 | 1014.1 |
| 20260903071603 | 80 | 22 | 0.0 | 2.0 | 0.00 | 0.00 | 0.00 | 64 | 1014.1 |
| 20260903071203 | 80 | 22 | 0.0 | 2.0 | 0.00 | 0.00 | 0.00 | 64 | 1013.7 |
| 20260903070803 | 80 | 22 | 0.0 | 2.0 | 0.00 | 0.00 | 0.00 | 64 | 1013.8 |
| 20260903070403 | 80 | 18 | 0.0 | 2.0 | 0.00 | 0.00 | 0.00 | 64 | 1014.0 |
| 20260903070004 | 80 | 325 | 0.0 | 2.0 | 0.00 | 0.00 | 0.00 | 64 | 1013.9 |
| 20260903065816 | 80 | 302 | 0.0 | 2.0 | 0.00 | 0.00 | 0.00 | 64 | 1014.3 |
| 20260903065203 | 78 | 283 | 1.0 | 4.0 | 0.00 | 0.00 | 0.00 | 67 | 1013.8 |
| 20260903064803 | 78 | 279 | 0.0 | 4.0 | 0.00 | 0.00 | 0.00 | 70 | 1013.9 |
| 20260903064614 | 77 | 270 | 1.0 | 4.0 | 0.00 | 0.00 | 0.00 | 70 | 1013.8 |
| 20260903064003 | 76 | 268 | 1.0 | 2.0 | 0.00 | 0.00 | 0.00 | 76 | 1013.7 |
| 20260903063603 | 76 | 273 | 2.0 | 2.0 | 0.00 | 0.00 | 0.00 | 77 | 1013.7 |
| 20260903063203 | 76 | 285 | 2.0 | 2.0 | 0.00 | 0.00 | 0.00 | 76 | 1013.9 |
| 20260903062803 | 76 | 289 | 0.0 | 2.0 | 0.00 | 0.00 | 0.00 | 77 | 1013.9 |
| 20260903062403 | 76 | 288 | 1.0 | 2.0 | 0.00 | 0.00 | 0.00 | 75 | 1013.8 |
| 20260903062003 | 75 | 293 | 0.0 | 2.0 | 0.00 | 0.00 | 0.00 | 76 | 1013.6 |
| 20260903061603 | 74 | 284 | 0.0 | 2.0 | 0.00 | 0.00 | 0.00 | 76 | 1013.5 |
| 20260903061414 | 74 | 282 | 1.0 | 2.0 | 0.00 | 0.00 | 0.00 | 77 | 1013.4 |
| 20260903060803 | 73 | 272 | 1.0 | 4.0 | 0.00 | 0.00 | 0.00 | 78 | 1013.6 |
| 20260903060403 | 73 | 280 | 0.0 | 4.0 | 0.00 | 0.00 | 0.00 | 79 | 1013.3 |
| 20260903060003 | 72 | 289 | 2.0 | 2.0 | 0.00 | 0.00 | 0.00 | 80 | 1013.6 |
| 20260903055603 | 72 | 315 | 1.0 | 2.0 | 0.00 | 0.00 | 0.00 | 81 | 1013.6 |
| 20260903055203 | 72 | 315 | 0.0 | 2.0 | 0.00 | 0.00 | 0.00 | 82 | 1013.4 |
| 20260903054803 | 71 | 315 | 1.0 | 2.0 | 0.00 | 0.00 | 0.00 | 82 | 1013.3 |
| 20260903054403 | 71 | 315 | 1.0 | 2.0 | 0.00 | 0.00 | 0.00 | 83 | 1013.6 |
| 20260903054214 | 71 | 315 | 0.0 | 2.0 | 0.00 | 0.00 | 0.00 | 84 | 1013.4 |
| 20260903053603 | 70 | 0 | 0.0 | 0.0 | 0.00 | 0.00 | 0.00 | 86 | 1013.4 |
| 20260903053413 | 70 | 0 | 0.0 | 0.0 | 0.00 | 0.00 | 0.00 | 86 | 1013.4 |
| 20260903052803 | 69 | 0 | 0.0 | 0.0 | 0.00 | 0.00 | 0.00 | 86 | 1013.2 |
| 20260903052403 | 68 | 0 | 0.0 | 0.0 | 0.00 | 0.00 | 0.00 | 89 | 1013.1 |
| 20260903052003 | 68 | 0 | 0.0 | 0.0 | 0.00 | 0.00 | 0.00 | 90 | 1013.2 |
| 20260903051603 | 67 | 0 | 0.0 | 0.0 | 0.00 | 0.00 | 0.00 | 92 | 1013.0 |
| 20260903051203 | 67 | 0 | 0.0 | 0.0 | 0.00 | 0.00 | 0.00 | 92 | 1013.1 |
| 20260903050803 | 67 | 0 | 0.0 | 0.0 | 0.00 | 0.00 | 0.00 | 93 | 1013.0 |
| 20260903050403 | 67 | 0 | 0.0 | 0.0 | 0.00 | 0.00 | 0.00 | 93 | 1013.0 |
| 20260903050004 | 67 | 0 | 0.0 | 0.0 | 0.00 | 0.00 | 0.00 | 93 | 1013.1 |
| 20260903045817 | 67 | 0 | 0.0 | 0.0 | 0.00 | 0.00 | 0.00 | 93 | 1012.7 |
| 20260903045203 | 67 | 0 | 0.0 | 0.0 | 0.00 | 0.00 | 0.00 | 93 | 1012.9 |
| 20260903045016 | 67 | 0 | 0.0 | 0.0 | 0.00 | 0.00 | 0.00 | 93 | 1012.8 |
| 20260903044615 | 67 | 0 | 0.0 | 0.0 | 0.00 | 0.00 | 0.00 | 92 | 1013.0 |
| 20260903044003 | 67 | 0 | 0.0 | 0.0 | 0.00 | 0.00 | 0.00 | 93 | 1012.8 |
| 20260903043603 | 67 | 0 | 0.0 | 0.0 | 0.00 | 0.00 | 0.00 | 94 | 1012.7 |
| 20260903043203 | 67 | 0 | 0.0 | 0.0 | 0.00 | 0.00 | 0.00 | 94 | 1012.7 |
| 20260903042803 | 67 | 0 | 0.0 | 0.0 | 0.00 | 0.00 | 0.00 | 93 | 1012.6 |
| 20260903042403 | 67 | 0 | 0.0 | 0.0 | 0.00 | 0.00 | 0.00 | 93 | 1012.8 |
| 20260903042003 | 67 | 0 | 0.0 | 0.0 | 0.00 | 0.00 | 0.00 | 94 | 1012.8 |
| 20260903041603 | 67 | 0 | 0.0 | 0.0 | 0.00 | 0.00 | 0.00 | 94 | 1012.7 |
| 20260903041203 | 67 | 0 | 0.0 | 0.0 | 0.00 | 0.00 | 0.00 | 93 | 1012.7 |
| 20260903040804 | 67 | 0 | 0.0 | 0.0 | 0.00 | 0.00 | 0.00 | 93 | 1012.8 |
| 20260903040403 | 67 | 0 | 0.0 | 0.0 | 0.00 | 0.00 | 0.00 | 93 | 1012.6 |
| 20260903040004 | 67 | 0 | 0.0 | 0.0 | 0.00 | 0.00 | 0.00 | 94 | 1012.7 |
| 20260903035603 | 67 | 0 | 0.0 | 0.0 | 0.00 | 0.00 | 0.00 | 94 | 1012.4 |
| 20260903035203 | 67 | 0 | 0.0 | 0.0 | 0.00 | 0.00 | 0.00 | 94 | 1012.7 |
| 20260903034803 | 67 | 0 | 0.0 | 0.0 | 0.00 | 0.00 | 0.00 | 94 | 1012.7 |
| 20260903034403 | 67 | 0 | 0.0 | 0.0 | 0.00 | 0.00 | 0.00 | 94 | 1012.8 |
| 20260903034003 | 68 | 0 | 0.0 | 0.0 | 0.00 | 0.00 | 0.00 | 94 | 1012.6 |
| 20260903033603 | 67 | 0 | 0.0 | 0.0 | 0.00 | 0.00 | 0.00 | 94 | 1012.6 |
| 20260903033203 | 68 | 0 | 0.0 | 0.0 | 0.00 | 0.00 | 0.00 | 94 | 1012.8 |
| 20260903032803 | 67 | 0 | 0.0 | 0.0 | 0.00 | 0.00 | 0.00 | 94 | 1012.5 |
| 20260903032403 | 67 | 0 | 0.0 | 0.0 | 0.00 | 0.00 | 0.00 | 94 | 1012.5 |
| 20260903032003 | 67 | 0 | 0.0 | 0.0 | 0.00 | 0.00 | 0.00 | 94 | 1012.8 |
| 20260903031603 | 67 | 0 | 0.0 | 0.0 | 0.00 | 0.00 | 0.00 | 94 | 1012.7 |
| 20260903031203 | 68 | 0 | 0.0 | 0.0 | 0.00 | 0.00 | 0.00 | 94 | 1012.8 |
| 20260903030803 | 68 | 0 | 0.0 | 0.0 | 0.00 | 0.00 | 0.00 | 94 | 1012.8 |
| 20260903030615 | 68 | 0 | 0.0 | 0.0 | 0.00 | 0.00 | 0.00 | 94 | 1012.7 |
| 20260903030004 | 68 | 0 | 0.0 | 0.0 | 0.00 | 0.00 | 0.00 | 93 | 1012.7 |
| 20260903025603 | 68 | 0 | 0.0 | 0.0 | 0.00 | 0.00 | 0.00 | 93 | 1012.8 |
| 20260903025203 | 69 | 0 | 0.0 | 0.0 | 0.00 | 0.00 | 0.00 | 93 | 1012.7 |
| 20260903025017 | 69 | 0 | 0.0 | 0.0 | 0.00 | 0.00 | 0.00 | 93 | 1012.7 |
| 20260903024616 | 68 | 0 | 0.0 | 0.0 | 0.00 | 0.00 | 0.00 | 93 | 1012.5 |
| 20260903024216 | 68 | 0 | 0.0 | 0.0 | 0.00 | 0.00 | 0.00 | 94 | 1012.3 |
| 20260903023603 | 68 | 0 | 0.0 | 0.0 | 0.00 | 0.00 | 0.00 | 93 | 1012.7 |
| 20260903023203 | 69 | 0 | 0.0 | 0.0 | 0.00 | 0.00 | 0.00 | 93 | 1012.6 |
| 20260903022803 | 69 | 0 | 0.0 | 0.0 | 0.00 | 0.00 | 0.00 | 93 | 1012.5 |
| 20260903022403 | 69 | 0 | 0.0 | 0.0 | 0.00 | 0.00 | 0.00 | 93 | 1012.6 |
| 20260903022003 | 69 | 0 | 0.0 | 0.0 | 0.00 | 0.00 | 0.00 | 93 | 1012.7 |
| 20260903021603 | 69 | 0 | 0.0 | 0.0 | 0.00 | 0.00 | 0.00 | 93 | 1012.9 |
| 20260903021203 | 69 | 0 | 0.0 | 0.0 | 0.00 | 0.00 | 0.00 | 92 | 1012.8 |
| 20260903020803 | 69 | 0 | 0.0 | 0.0 | 0.00 | 0.00 | 0.00 | 92 | 1012.9 |
| 20260903020615 | 69 | 0 | 0.0 | 0.0 | 0.00 | 0.00 | 0.00 | 92 | 1013.0 |
| 20260903020003 | 69 | 0 | 0.0 | 0.0 | 0.00 | 0.00 | 0.00 | 92 | 1012.8 |
| 20260903015603 | 69 | 0 | 0.0 | 0.0 | 0.00 | 0.00 | 0.00 | 92 | 1012.9 |
| 20260903015204 | 69 | 0 | 0.0 | 0.0 | 0.00 | 0.00 | 0.00 | 92 | 1012.9 |
| 20260903015013 | 69 | 0 | 0.0 | 0.0 | 0.00 | 0.00 | 0.00 | 92 | 1012.8 |
| 20260903014403 | 69 | 315 | 0.0 | 2.0 | 0.00 | 0.00 | 0.00 | 91 | 1012.9 |
| 20260903014003 | 69 | 315 | 0.0 | 2.0 | 0.00 | 0.00 | 0.00 | 91 | 1012.9 |
| 20260903013603 | 70 | 315 | 0.0 | 2.0 | 0.00 | 0.00 | 0.00 | 90 | 1012.7 |
| 20260903013203 | 70 | 315 | 0.0 | 2.0 | 0.00 | 0.00 | 0.00 | 90 | 1013.0 |
| 20260903012803 | 70 | 320 | 1.0 | 2.0 | 0.00 | 0.00 | 0.00 | 90 | 1012.7 |
| 20260903012403 | 70 | 326 | 0.0 | 2.0 | 0.00 | 0.00 | 0.00 | 90 | 1012.8 |
| 20260903012003 | 70 | 334 | 1.0 | 2.0 | 0.00 | 0.00 | 0.00 | 90 | 1012.7 |
| 20260903011603 | 70 | 332 | 1.0 | 2.0 | 0.00 | 0.00 | 0.00 | 89 | 1012.7 |
| 20260903011203 | 71 | 337 | 0.0 | 2.0 | 0.00 | 0.00 | 0.00 | 89 | 1012.5 |
| 20260903010803 | 71 | 337 | 0.0 | 2.0 | 0.00 | 0.00 | 0.00 | 87 | 1012.8 |
| 20260903010403 | 71 | 345 | 0.0 | 2.0 | 0.00 | 0.00 | 0.00 | 87 | 1012.6 |
| 20260903010003 | 71 | 350 | 1.0 | 2.0 | 0.00 | 0.00 | 0.00 | 87 | 1012.6 |
| 20260903005603 | 71 | 360 | 1.0 | 2.0 | 0.00 | 0.00 | 0.00 | 86 | 1012.7 |
| 20260903005203 | 72 | 0 | 0.0 | 0.0 | 0.00 | 0.00 | 0.00 | 85 | 1012.5 |
| 20260903004803 | 72 | 0 | 0.0 | 0.0 | 0.00 | 0.00 | 0.00 | 85 | 1012.6 |
| 20260903004403 | 72 | 360 | 0.0 | 2.0 | 0.00 | 0.00 | 0.00 | 84 | 1012.5 |
| 20260903004003 | 72 | 360 | 0.0 | 2.0 | 0.00 | 0.00 | 0.00 | 83 | 1012.5 |
| 20260903003603 | 72 | 0 | 0.0 | 0.0 | 0.00 | 0.00 | 0.00 | 84 | 1012.6 |
| 20260903003203 | 72 | 0 | 0.0 | 0.0 | 0.00 | 0.00 | 0.00 | 84 | 1012.6 |
| 20260903003015 | 72 | 0 | 0.0 | 0.0 | 0.00 | 0.00 | 0.00 | 84 | 1012.6 |
| 20260903002615 | 72 | 0 | 0.0 | 0.0 | 0.00 | 0.00 | 0.00 | 84 | 1012.8 |
| 20260903002003 | 73 | 36 | 0.0 | 2.0 | 0.00 | 0.00 | 0.00 | 83 | 1012.5 |
| 20260903001813 | 73 | 38 | 0.0 | 2.0 | 0.00 | 0.00 | 0.00 | 83 | 1012.9 |
| 20260903001203 | 73 | 45 | 0.0 | 2.0 | 0.00 | 0.00 | 0.00 | 84 | 1012.8 |
| 20260903001017 | 73 | 45 | 0.0 | 2.0 | 0.00 | 0.00 | 0.00 | 84 | 1012.7 |
| 20260903000403 | 72 | 90 | 0.0 | 2.0 | 0.00 | 0.00 | 0.00 | 84 | 1012.8 |
| 20260903000003 | 72 | 90 | 0.0 | 2.0 | 0.00 | 0.00 | 0.00 | 83 | 1012.7 |
| 20260902235815 | 72 | 90 | 1.0 | 2.0 | 0.00 | 0.00 | 0.00 | 83 | 1012.7 |
| 20260902235203 | 72 | 0 | 0.0 | 0.0 | 0.00 | 0.00 | 0.00 | 83 | 1012.7 |
| 20260902235014 | 72 | 0 | 0.0 | 0.0 | 0.00 | 0.00 | 0.00 | 83 | 1012.5 |
| 20260902234404 | 72 | 0 | 0.0 | 0.0 | 0.00 | 0.00 | 0.00 | 84 | 1012.6 |
| 20260902234004 | 71 | 0 | 0.0 | 0.0 | 0.00 | 0.00 | 0.00 | 84 | 1012.4 |
| 20260902233603 | 72 | 0 | 0.0 | 0.0 | 0.00 | 0.00 | 0.00 | 83 | 1012.6 |
| 20260902233203 | 72 | 0 | 0.0 | 0.0 | 0.00 | 0.00 | 0.00 | 83 | 1012.7 |
| 20260902232803 | 72 | 0 | 0.0 | 0.0 | 0.00 | 0.00 | 0.00 | 83 | 1012.5 |
| 20260902232403 | 72 | 0 | 0.0 | 0.0 | 0.00 | 0.00 | 0.00 | 83 | 1012.5 |
| 20260902232003 | 72 | 0 | 0.0 | 0.0 | 0.00 | 0.00 | 0.00 | 83 | 1012.7 |
| 20260902231603 | 72 | 0 | 0.0 | 0.0 | 0.00 | 0.00 | 0.00 | 83 | 1012.6 |
| 20260902231413 | 72 | 0 | 0.0 | 0.0 | 0.00 | 0.00 | 0.00 | 83 | 1012.6 |
| 20260902230803 | 72 | 0 | 0.0 | 0.0 | 0.00 | 0.00 | 0.00 | 83 | 1012.5 |
| 20260902230403 | 72 | 0 | 0.0 | 0.0 | 0.00 | 0.00 | 0.00 | 83 | 1012.6 |
| 20260902230004 | 72 | 90 | 0.0 | 2.0 | 0.00 | 0.00 | 0.00 | 83 | 1012.5 |
| 20260902225603 | 72 | 90 | 0.0 | 2.0 | 0.00 | 0.00 | 0.00 | 84 | 1012.6 |
| 20260902225203 | 72 | 90 | 1.0 | 2.0 | 0.00 | 0.00 | 0.00 | 84 | 1012.6 |
| 20260902224803 | 71 | 0 | 0.0 | 0.0 | 0.00 | 0.00 | 0.00 | 86 | 1012.6 |
| 20260902224403 | 71 | 0 | 0.0 | 0.0 | 0.00 | 0.00 | 0.00 | 86 | 1012.7 |
| 20260902224003 | 72 | 0 | 0.0 | 0.0 | 0.00 | 0.00 | 0.00 | 86 | 1012.5 |
| 20260902223603 | 72 | 0 | 0.0 | 0.0 | 0.00 | 0.00 | 0.00 | 85 | 1012.6 |
| 20260902223203 | 72 | 0 | 0.0 | 0.0 | 0.00 | 0.00 | 0.00 | 84 | 1012.7 |
| 20260902222803 | 72 | 0 | 0.0 | 0.0 | 0.00 | 0.00 | 0.00 | 84 | 1012.4 |
| 20260902222403 | 72 | 0 | 0.0 | 0.0 | 0.00 | 0.00 | 0.00 | 83 | 1012.4 |
| 20260902222004 | 71 | 0 | 0.0 | 0.0 | 0.00 | 0.00 | 0.00 | 86 | 1012.5 |
| 20260902221603 | 71 | 0 | 0.0 | 0.0 | 0.00 | 0.00 | 0.00 | 86 | 1012.3 |
| 20260902221203 | 72 | 0 | 0.0 | 0.0 | 0.00 | 0.00 | 0.00 | 86 | 1012.3 |
| 20260902220803 | 72 | 0 | 0.0 | 0.0 | 0.00 | 0.00 | 0.00 | 85 | 1012.3 |
| 20260902220403 | 72 | 0 | 0.0 | 0.0 | 0.00 | 0.00 | 0.00 | 85 | 1012.3 |
| 20260902220007 | 72 | 0 | 0.0 | 0.0 | 0.00 | 0.00 | 0.00 | 85 | 1012.2 |
| 20260902215603 | 72 | 0 | 0.0 | 0.0 | 0.00 | 0.00 | 0.00 | 84 | 1012.4 |
| 20260902215416 | 72 | 0 | 0.0 | 0.0 | 0.00 | 0.00 | 0.00 | 84 | 1012.1 |
| 20260902214803 | 73 | 0 | 0.0 | 0.0 | 0.00 | 0.00 | 0.00 | 82 | 1012.0 |
| 20260902214403 | 73 | 0 | 0.0 | 0.0 | 0.00 | 0.00 | 0.00 | 81 | 1012.1 |
| 20260902214003 | 73 | 0 | 0.0 | 0.0 | 0.00 | 0.00 | 0.00 | 82 | 1012.1 |
| 20260902213603 | 72 | 0 | 0.0 | 0.0 | 0.00 | 0.00 | 0.00 | 83 | 1011.9 |
| 20260902213203 | 72 | 0 | 0.0 | 0.0 | 0.00 | 0.00 | 0.00 | 84 | 1012.3 |
| 20260902212803 | 72 | 0 | 0.0 | 0.0 | 0.00 | 0.00 | 0.00 | 84 | 1012.0 |
| 20260902212617 | 72 | 0 | 0.0 | 0.0 | 0.00 | 0.00 | 0.00 | 84 | 1012.0 |
| 20260902212003 | 72 | 0 | 0.0 | 0.0 | 0.00 | 0.00 | 0.00 | 84 | 1012.0 |
| 20260902211603 | 72 | 0 | 0.0 | 0.0 | 0.00 | 0.00 | 0.00 | 84 | 1011.9 |
| 20260902211203 | 72 | 0 | 0.0 | 0.0 | 0.00 | 0.00 | 0.00 | 83 | 1012.1 |
| 20260902210803 | 73 | 0 | 0.0 | 0.0 | 0.00 | 0.00 | 0.00 | 83 | 1012.0 |
| 20260902210613 | 73 | 0 | 0.0 | 0.0 | 0.00 | 0.00 | 0.00 | 82 | 1011.9 |
| 20260902210004 | 73 | 0 | 0.0 | 0.0 | 0.00 | 0.00 | 0.00 | 81 | 1011.9 |
| 20260902205603 | 73 | 0 | 0.0 | 0.0 | 0.00 | 0.00 | 0.00 | 82 | 1011.7 |
| 20260902205203 | 74 | 0 | 0.0 | 0.0 | 0.00 | 0.00 | 0.00 | 81 | 1012.0 |
| 20260902204803 | 74 | 0 | 0.0 | 0.0 | 0.00 | 0.00 | 0.00 | 81 | 1012.0 |
| 20260902204403 | 74 | 0 | 0.0 | 0.0 | 0.00 | 0.00 | 0.00 | 80 | 1011.7 |
| 20260902204215 | 74 | 0 | 0.0 | 0.0 | 0.00 | 0.00 | 0.00 | 79 | 1011.7 |
| 20260902203603 | 74 | 90 | 0.0 | 2.0 | 0.00 | 0.00 | 0.00 | 80 | 1011.8 |
| 20260902203203 | 74 | 90 | 0.0 | 2.0 | 0.00 | 0.00 | 0.00 | 78 | 1011.7 |
| 20260902202803 | 74 | 90 | 0.0 | 2.0 | 0.00 | 0.00 | 0.00 | 80 | 1011.8 |
| 20260902202403 | 74 | 0 | 0.0 | 0.0 | 0.00 | 0.00 | 0.00 | 80 | 1011.6 |
| 20260902202003 | 74 | 0 | 0.0 | 0.0 | 0.00 | 0.00 | 0.00 | 80 | 1011.5 |
| 20260902201604 | 75 | 0 | 0.0 | 0.0 | 0.00 | 0.00 | 0.00 | 80 | 1011.6 |
| 20260902201204 | 74 | 0 | 0.0 | 0.0 | 0.00 | 0.00 | 0.00 | 79 | 1011.4 |
| 20260902200803 | 74 | 0 | 0.0 | 0.0 | 0.00 | 0.00 | 0.00 | 79 | 1011.6 |
| 20260902200403 | 74 | 0 | 0.0 | 0.0 | 0.00 | 0.00 | 0.00 | 80 | 1011.7 |
| 20260902200003 | 74 | 0 | 0.0 | 0.0 | 0.00 | 0.00 | 0.00 | 81 | 1011.4 |
| 20260902195603 | 74 | 0 | 0.0 | 0.0 | 0.00 | 0.00 | 0.00 | 81 | 1011.5 |
| 20260902195203 | 74 | 0 | 0.0 | 0.0 | 0.00 | 0.00 | 0.00 | 82 | 1011.5 |
| 20260902194803 | 74 | 0 | 0.0 | 0.0 | 0.00 | 0.00 | 0.00 | 82 | 1011.7 |
| 20260902194616 | 74 | 0 | 0.0 | 0.0 | 0.00 | 0.00 | 0.00 | 82 | 1011.6 |
| 20260902194003 | 75 | 0 | 0.0 | 0.0 | 0.00 | 0.00 | 0.00 | 81 | 1011.7 |
| 20260902193603 | 75 | 0 | 0.0 | 0.0 | 0.00 | 0.00 | 0.00 | 80 | 1011.6 |
| 20260902193203 | 75 | 0 | 0.0 | 0.0 | 0.00 | 0.00 | 0.00 | 80 | 1011.4 |
| 20260902192803 | 76 | 0 | 0.0 | 0.0 | 0.00 | 0.00 | 0.00 | 79 | 1011.4 |
| 20260902192403 | 76 | 0 | 0.0 | 0.0 | 0.00 | 0.00 | 0.00 | 78 | 1011.5 |
| 20260902192004 | 76 | 0 | 0.0 | 0.0 | 0.00 | 0.00 | 0.00 | 78 | 1011.3 |
| 20260902191604 | 76 | 0 | 0.0 | 0.0 | 0.00 | 0.00 | 0.00 | 78 | 1011.5 |
| 20260902191416 | 76 | 0 | 0.0 | 0.0 | 0.00 | 0.00 | 0.00 | 78 | 1011.5 |
| 20260902190803 | 76 | 0 | 0.0 | 0.0 | 0.00 | 0.00 | 0.00 | 78 | 1011.4 |
| 20260902190403 | 76 | 0 | 0.0 | 0.0 | 0.00 | 0.00 | 0.00 | 78 | 1011.4 |
| 20260902190004 | 76 | 90 | 0.0 | 2.0 | 0.00 | 0.00 | 0.00 | 78 | 1011.4 |
| 20260902185603 | 76 | 90 | 0.0 | 2.0 | 0.00 | 0.00 | 0.00 | 78 | 1011.2 |
| 20260902185204 | 76 | 90 | 0.0 | 2.0 | 0.00 | 0.00 | 0.00 | 77 | 1011.1 |
| 20260902184803 | 76 | 90 | 0.0 | 2.0 | 0.00 | 0.00 | 0.00 | 78 | 1011.1 |
| 20260902184403 | 77 | 0 | 0.0 | 0.0 | 0.00 | 0.00 | 0.00 | 77 | 1011.3 |
| 20260902184003 | 77 | 90 | 0.0 | 2.0 | 0.00 | 0.00 | 0.00 | 77 | 1011.0 |
| 20260902183603 | 76 | 90 | 0.0 | 2.0 | 0.00 | 0.00 | 0.00 | 76 | 1010.9 |
| 20260902183203 | 77 | 0 | 0.0 | 0.0 | 0.00 | 0.00 | 0.00 | 76 | 1011.1 |
| 20260902182803 | 78 | 0 | 0.0 | 0.0 | 0.00 | 0.00 | 0.00 | 75 | 1011.1 |
| 20260902182613 | 78 | 0 | 0.0 | 0.0 | 0.00 | 0.00 | 0.00 | 73 | 1011.0 |
| 20260902182004 | 79 | 90 | 0.0 | 2.0 | 0.00 | 0.00 | 0.00 | 70 | 1011.0 |
| 20260902181603 | 80 | 90 | 0.0 | 2.0 | 0.00 | 0.00 | 0.00 | 70 | 1010.8 |
| 20260902181203 | 80 | 90 | 1.0 | 2.0 | 0.00 | 0.00 | 0.00 | 68 | 1010.7 |
| 20260902180803 | 80 | 90 | 1.0 | 2.0 | 0.00 | 0.00 | 0.00 | 67 | 1010.7 |
| 20260902180615 | 80 | 90 | 0.0 | 2.0 | 0.00 | 0.00 | 0.00 | 68 | 1010.6 |
| 20260902180006 | 80 | 90 | 2.0 | 2.0 | 0.00 | 0.00 | 0.00 | 68 | 1010.6 |
| 20260902175603 | 80 | 90 | 0.0 | 2.0 | 0.00 | 0.00 | 0.00 | 68 | 1010.7 |
| 20260902175203 | 80 | 90 | 0.0 | 2.0 | 0.00 | 0.00 | 0.00 | 68 | 1010.6 |
| 20260902175013 | 80 | 90 | 0.0 | 2.0 | 0.00 | 0.00 | 0.00 | 68 | 1010.6 |
| 20260902174617 | 81 | 90 | 0.0 | 2.0 | 0.00 | 0.00 | 0.00 | 68 | 1010.5 |
| 20260902174003 | 81 | 90 | 0.0 | 4.0 | 0.00 | 0.00 | 0.00 | 66 | 1010.5 |
| 20260902173603 | 82 | 90 | 0.0 | 4.0 | 0.00 | 0.00 | 0.00 | 64 | 1010.5 |
| 20260902173203 | 83 | 88 | 2.0 | 4.0 | 0.00 | 0.00 | 0.00 | 62 | 1010.7 |
| 20260902172803 | 82 | 87 | 2.0 | 4.0 | 0.00 | 0.00 | 0.00 | 62 | 1010.5 |
| 20260902172403 | 82 | 90 | 2.0 | 2.0 | 0.00 | 0.00 | 0.00 | 63 | 1010.3 |
| 20260902172213 | 83 | 93 | 0.0 | 2.0 | 0.00 | 0.00 | 0.00 | 63 | 1010.5 |
| 20260902171603 | 83 | 92 | 0.0 | 4.0 | 0.00 | 0.00 | 0.00 | 61 | 1010.7 |
| 20260902171417 | 83 | 92 | 1.0 | 4.0 | 0.00 | 0.00 | 0.00 | 61 | 1010.6 |
| 20260902170803 | 83 | 85 | 1.0 | 4.0 | 0.00 | 0.00 | 0.00 | 62 | 1010.6 |
| 20260902170616 | 84 | 78 | 0.0 | 4.0 | 0.00 | 0.00 | 0.00 | 62 | 1010.7 |
| 20260902170003 | 84 | 71 | 1.0 | 4.0 | 0.00 | 0.00 | 0.00 | 61 | 1010.7 |
| 20260902165603 | 85 | 101 | 2.0 | 4.0 | 0.00 | 0.00 | 0.00 | 59 | 1010.8 |
| 20260902165203 | 85 | 149 | 2.0 | 4.0 | 0.00 | 0.00 | 0.00 | 56 | 1010.7 |
| 20260902164803 | 86 | 167 | 1.0 | 2.0 | 0.00 | 0.00 | 0.00 | 54 | 1010.6 |
| 20260902164403 | 86 | 145 | 1.0 | 2.0 | 0.00 | 0.00 | 0.00 | 55 | 1010.5 |
| 20260902164003 | 87 | 135 | 0.0 | 2.0 | 0.00 | 0.00 | 0.00 | 52 | 1010.6 |
| 20260902163816 | 87 | 133 | 1.0 | 2.0 | 0.00 | 0.00 | 0.00 | 52 | 1010.5 |
| 20260902163203 | 87 | 158 | 2.0 | 4.0 | 0.00 | 0.00 | 0.00 | 51 | 1010.4 |
| 20260902162803 | 88 | 158 | 2.0 | 4.0 | 0.00 | 0.00 | 0.00 | 50 | 1010.6 |
| 20260902162403 | 88 | 157 | 2.0 | 2.0 | 0.00 | 0.00 | 0.00 | 49 | 1010.5 |
| 20260902162214 | 89 | 154 | 0.0 | 2.0 | 0.00 | 0.00 | 0.00 | 50 | 1010.5 |
| 20260902161603 | 89 | 154 | 1.0 | 4.0 | 0.00 | 0.00 | 0.00 | 48 | 1010.7 |
| 20260902161203 | 90 | 156 | 2.0 | 4.0 | 0.00 | 0.00 | 0.00 | 48 | 1010.7 |
| 20260902160803 | 90 | 160 | 0.0 | 2.0 | 0.00 | 0.00 | 0.00 | 47 | 1010.6 |
| 20260902160403 | 89 | 154 | 2.0 | 2.0 | 0.00 | 0.00 | 0.00 | 48 | 1010.8 |
| 20260902160004 | 91 | 149 | 1.0 | 2.0 | 0.00 | 0.00 | 0.00 | 47 | 1010.6 |
| 20260902155603 | 90 | 112 | 0.0 | 2.0 | 0.00 | 0.00 | 0.00 | 48 | 1010.4 |
| 20260902155415 | 89 | 107 | 0.0 | 2.0 | 0.00 | 0.00 | 0.00 | 47 | 1010.8 |
| 20260902154803 | 89 | 98 | 2.0 | 2.0 | 0.00 | 0.00 | 0.00 | 49 | 1010.4 |
| 20260902154613 | 89 | 106 | 2.0 | 2.0 | 0.00 | 0.00 | 0.00 | 49 | 1010.7 |
| 20260902154003 | 90 | 125 | 0.0 | 2.0 | 0.00 | 0.00 | 0.00 | 48 | 1010.7 |
| 20260902153603 | 91 | 141 | 0.0 | 2.0 | 0.00 | 0.00 | 0.00 | 48 | 1010.6 |
| 20260902153417 | 92 | 168 | 0.0 | 2.0 | 0.00 | 0.00 | 0.00 | 46 | 1010.7 |
| 20260902152803 | 92 | 220 | 0.0 | 4.0 | 0.00 | 0.00 | 0.00 | 44 | 1010.9 |
| 20260902152403 | 90 | 211 | 1.0 | 4.0 | 0.00 | 0.00 | 0.00 | 44 | 1010.8 |
| 20260902152003 | 90 | 185 | 2.0 | 4.0 | 0.00 | 0.00 | 0.00 | 46 | 1010.7 |
| 20260902151814 | 90 | 181 | 2.0 | 4.0 | 0.00 | 0.00 | 0.00 | 46 | 1010.8 |
| 20260902151203 | 92 | 215 | 2.0 | 4.0 | 0.00 | 0.00 | 0.00 | 45 | 1010.8 |
| 20260902150803 | 91 | 224 | 1.0 | 4.0 | 0.00 | 0.00 | 0.00 | 44 | 1010.9 |
| 20260902150403 | 92 | 203 | 2.0 | 6.0 | 0.00 | 0.00 | 0.00 | 45 | 1010.9 |
| 20260902150003 | 91 | 231 | 1.0 | 6.0 | 0.00 | 0.00 | 0.00 | 47 | 1010.9 |
| 20260902145603 | 90 | 227 | 2.0 | 6.0 | 0.00 | 0.00 | 0.00 | 49 | 1010.8 |
| 20260902145203 | 92 | 199 | 2.0 | 4.0 | 0.00 | 0.00 | 0.00 | 45 | 1011.0 |
| 20260902144803 | 92 | 148 | 2.0 | 4.0 | 0.00 | 0.00 | 0.00 | 44 | 1011.1 |
| 20260902144403 | 92 | 235 | 1.0 | 4.0 | 0.00 | 0.00 | 0.00 | 47 | 1011.0 |
| 20260902144213 | 92 | 247 | 2.0 | 6.0 | 0.00 | 0.00 | 0.00 | 46 | 1011.1 |
| 20260902143603 | 90 | 233 | 2.0 | 6.0 | 0.00 | 0.00 | 0.00 | 47 | 1011.3 |
| 20260902143203 | 91 | 211 | 2.0 | 6.0 | 0.00 | 0.00 | 0.00 | 45 | 1011.2 |
| 20260902142803 | 91 | 236 | 1.0 | 4.0 | 0.00 | 0.00 | 0.00 | 46 | 1011.3 |
| 20260902142403 | 91 | 219 | 2.0 | 4.0 | 0.00 | 0.00 | 0.00 | 47 | 1011.2 |
| 20260902142003 | 91 | 184 | 1.0 | 4.0 | 0.00 | 0.00 | 0.00 | 44 | 1011.3 |
| 20260902141603 | 92 | 130 | 2.0 | 4.0 | 0.00 | 0.00 | 0.00 | 48 | 1011.5 |
| 20260902141414 | 92 | 106 | 2.0 | 4.0 | 0.00 | 0.00 | 0.00 | 46 | 1011.3 |
| 20260902140803 | 90 | 91 | 2.0 | 4.0 | 0.00 | 0.00 | 0.00 | 47 | 1011.6 |
| 20260902140403 | 90 | 126 | 1.0 | 4.0 | 0.00 | 0.00 | 0.00 | 49 | 1011.4 |
| 20260902140003 | 87 | 133 | 0.0 | 4.0 | 0.00 | 0.00 | 0.00 | 53 | 1011.5 |
| 20260902135816 | 87 | 135 | 0.0 | 4.0 | 0.00 | 0.00 | 0.00 | 51 | 1011.5 |
| 20260902135203 | 90 | 118 | 2.0 | 4.0 | 0.00 | 0.00 | 0.00 | 47 | 1011.5 |
| 20260902134803 | 90 | 90 | 1.0 | 2.0 | 0.00 | 0.00 | 0.00 | 52 | 1011.4 |
| 20260902134403 | 90 | 90 | 1.0 | 2.0 | 0.00 | 0.00 | 0.00 | 52 | 1011.4 |
| 20260902134003 | 90 | 90 | 2.0 | 2.0 | 0.00 | 0.00 | 0.00 | 48 | 1011.4 |
| 20260902133603 | 90 | 113 | 2.0 | 2.0 | 0.00 | 0.00 | 0.00 | 48 | 1011.5 |
| 20260902133204 | 90 | 126 | 2.0 | 2.0 | 0.00 | 0.00 | 0.00 | 48 | 1011.4 |
| 20260902132803 | 90 | 113 | 1.0 | 2.0 | 0.00 | 0.00 | 0.00 | 46 | 1011.8 |
| 20260902132404 | 90 | 96 | 1.0 | 2.0 | 0.00 | 0.00 | 0.00 | 49 | 1011.5 |
| 20260902132003 | 89 | 142 | 1.0 | 2.0 | 0.00 | 0.00 | 0.00 | 48 | 1011.9 |
| 20260902131603 | 91 | 198 | 1.0 | 4.0 | 0.00 | 0.00 | 0.00 | 43 | 1011.7 |
| 20260902131203 | 89 | 185 | 0.0 | 4.0 | 0.00 | 0.00 | 0.00 | 47 | 1011.9 |
| 20260902130803 | 89 | 188 | 2.0 | 4.0 | 0.00 | 0.00 | 0.00 | 47 | 1011.7 |
| 20260902130403 | 91 | 243 | 3.0 | 4.0 | 0.00 | 0.00 | 0.00 | 46 | 1011.7 |
| 20260902130004 | 90 | 262 | 0.0 | 4.0 | 0.00 | 0.00 | 0.00 | 46 | 1011.7 |
| 20260902125603 | 92 | 317 | 3.0 | 4.0 | 0.00 | 0.00 | 0.00 | 45 | 1011.7 |
| 20260902125203 | 92 | 17 | 1.0 | 4.0 | 0.00 | 0.00 | 0.00 | 43 | 1011.6 |
| 20260902124803 | 90 | 289 | 2.0 | 4.0 | 0.00 | 0.00 | 0.00 | 45 | 1011.8 |
| 20260902124403 | 90 | 245 | 2.0 | 4.0 | 0.00 | 0.00 | 0.00 | 44 | 1011.9 |
| 20260902124003 | 91 | 225 | 2.0 | 4.0 | 0.00 | 0.00 | 0.00 | 44 | 1011.9 |
| 20260902123603 | 90 | 183 | 0.0 | 4.0 | 0.00 | 0.00 | 0.00 | 44 | 1012.0 |
| 20260902123203 | 89 | 185 | 2.0 | 4.0 | 0.00 | 0.00 | 0.00 | 44 | 1012.1 |
| 20260902122803 | 89 | 210 | 2.0 | 4.0 | 0.00 | 0.00 | 0.00 | 48 | 1012.1 |
| 20260902122403 | 89 | 276 | 1.0 | 4.0 | 0.00 | 0.00 | 0.00 | 49 | 1012.3 |
| 20260902122003 | 90 | 269 | 2.0 | 4.0 | 0.00 | 0.00 | 0.00 | 45 | 1012.2 |
| 20260902121603 | 90 | 237 | 1.0 | 4.0 | 0.00 | 0.00 | 0.00 | 44 | 1012.3 |
| 20260902121203 | 90 | 210 | 2.0 | 4.0 | 0.00 | 0.00 | 0.00 | 45 | 1012.3 |
| 20260902120803 | 91 | 161 | 2.0 | 4.0 | 0.00 | 0.00 | 0.00 | 45 | 1012.3 |
| 20260902120403 | 90 | 124 | 1.0 | 4.0 | 0.00 | 0.00 | 0.00 | 47 | 1012.2 |
| 20260902120004 | 90 | 110 | 2.0 | 4.0 | 0.00 | 0.00 | 0.00 | 47 | 1012.5 |
| 20260902115603 | 89 | 87 | 2.0 | 4.0 | 0.00 | 0.00 | 0.00 | 48 | 1012.1 |
| 20260902115203 | 87 | 74 | 2.0 | 4.0 | 0.00 | 0.00 | 0.00 | 50 | 1012.1 |
| 20260902114803 | 89 | 84 | 2.0 | 4.0 | 0.00 | 0.00 | 0.00 | 48 | 1012.2 |
| 20260902114403 | 92 | 272 | 1.0 | 4.0 | 0.00 | 0.00 | 0.00 | 43 | 1012.6 |
| 20260902114215 | 91 | 251 | 2.0 | 4.0 | 0.00 | 0.00 | 0.00 | 46 | 1012.5 |
| 20260902113603 | 90 | 240 | 2.0 | 4.0 | 0.00 | 0.00 | 0.00 | 47 | 1012.5 |